Regional Weather Roundup
Issued by NWS

Home | Current Version | Previous Version | Graphics & Text | Print | Product List | Glossary On
Versions: 1 2 3 4 5 6 7 8 9 10 11 12 13 14 15 16 17 18 19 20 21 22 23 24 25 26 27 28 29 30 31 32 33 34 35 36 37 38 39 40 41 42 43 44 45 46 47 48 49 50
000
ASUS43 KFSD 201302
RWRSD

WEATHER ROUNDUP FOR SOUTH DAKOTA
NATIONAL WEATHER SERVICE SIOUX FALLS SD
800 AM CDT SAT SEP 20 2014

NOTE: "FAIR" INDICATES FEW OR NO CLOUDS BELOW 12,000 FEET WITH NO
SIGNIFICANT WEATHER AND/OR OBSTRUCTIONS TO VISIBILITY.


SDZ001>005-009-010-012>017-201400-
NORTHWEST AND NORTH CENTRAL SOUTH DAKOTA

CITY           SKY/WX    TMP DP  RH WIND       PRES   REMARKS
FAITH            N/A     58  48  69 W15       29.97R
MOBRIDGE       CLEAR     49  48  97 CALM      29.89R
$$

SDZ012>016-024>037-041>051-057-063-072>074-201400-
SOUTHWEST AND SOUTH CENTRAL SOUTH DAKOTA

CITY           SKY/WX    TMP DP  RH WIND       PRES   REMARKS
RAPID CTY ARPT CLEAR     54  46  74 NW9       30.05S
PIERRE         CLEAR     55  50  83 W3        29.93R
CUSTER         CLEAR     53  41  63 W3        30.18R
ELLSWORTH AFB  CLEAR     54  47  75 W9        30.05R
PHILIP         CLEAR     54  49  83 W10       29.99R
PINE RIDGE     MOCLDY    46  44  93 CALM      30.09R
WINNER         FAIR      59  52  77 W7        29.97R
$$

SDZ004>011-016>023-039-040-201400-
NORTHEAST SOUTH DAKOTA

CITY           SKY/WX    TMP DP  RH WIND       PRES   REMARKS
ABERDEEN       CLEAR     56  52  86 W3        29.88R
WATERTOWN      CLEAR     54  53  97 CALM      29.88R
SISSETON         N/A     56  54  93 W3        29.85R
$$

SDZ017-020-022-023-036>040-048>070-201400-
SOUTHEAST SOUTH DAKOTA

CITY           SKY/WX    TMP DP  RH WIND       PRES   REMARKS
SIOUX FALLS    MOCLDY    62  58  86 W5        29.89S
HURON          CLEAR     53  50  89 W5        29.90R
CHAMBERLAIN    CLEAR     56  53  88 W6        29.95R
MITCHELL       CLEAR     59  56  89 W5        29.92R
YANKTON        MOCLDY    63  55  77 W7        29.91R
$$

ABBREVIATIONS USED IN REMARKS
   TC - TEMPERATURE IN CELSIUS
  WCI - WIND CHILL INDEX
   HX - HEAT INDEX
  VSB - VISIBILITY



USA.gov is the U.S. government's official web portal to all federal, state and local government web resources and services.